{"data":{"norad_id":55401,"intl_designator":"2023-014L","name":"STARLINK-5076","alt_names":[],"object_type":"PAYLOAD","status":"ACTIVE","operator":null,"country":"US","launch_date":"2023-01-31","launch_site_code":"AFWTR","launch_vehicle":null,"mission":null,"orbit_class":"UNKNOWN","rcs_meters":null,"size_class":null,"mass_kg":null,"dimensions":null,"purposes":["comms"],"wikipedia_slug":null,"has_3d_model":false,"image_url":null,"decayed_at":null,"tle_current":{"epoch":"2026-09-20T11:21:14.510304Z","epoch_age_seconds":98982,"freshness":"FRESH","line1":"1 55401U 23014L   26263.47308461  .00000313  00000+0  34056-4 0  9995","line2":"2 55401  69.9991 293.2771 0003825 276.1448  83.9275 14.98327993201238","mean_motion":14.98327993,"eccentricity":0.0003825,"inclination_deg":69.9991,"raan_deg":293.2771,"arg_perigee_deg":276.1448,"mean_anomaly_deg":83.9275,"bstar":3.4056e-5,"rev_number":20123,"period_min":96.107127860355,"perigee_km":569.40364627852,"apogee_km":574.72054858805,"semimajor_km":6950.1990974333,"source":"CELESTRAK","updated_at":"2026-09-21T09:00:33.215313Z"}}}